Location: 22
(39.7117°N, 89.5929°W)
Time: 18:31:49
(UTC-05:00)

Vanguard 3 - Pass Details

Date: 03 February 2023
Orbit: 508 x 3249 km, 33.4° (Epoch: 30 March)

Event Time Altitude Azimuth Distance (km) Brightness Sun altitude
Rises 01:05:08 0° 280° (W) 6,319 - -64.1°
Reaches altitude 10° 01:09:28 10° 272° (W) 5,603 - -63.7°
Maximum altitude 01:24:47 36° 216° (SW) 4,380 - -62.0°
Drops below altitude 10° 01:41:05 10° 158° (SSE) 5,899 - -59.8°
Exits shadow 01:43:48 - 153° (SSE) 6,325 11.6 -59.5°
Sets 01:45:54 0° 150° (SSE) 6,671 11.7 -59.2°
